Wolke Sonne

Wetter Ammerndorf

Gehe zu: Roßtal

Tageswerte vom Samstag, 04.02.2023

Optionen

Tag:
Erweitert:

Alle Werte vom Samstag, 04.02.2023

Einen Moment bitte, die Daten werden aufbereitet...

UhrzeitTemperaturBoden 10cmBoden 20cmFeuchteLuftdruckNiederschlagEvapotranspirationWindWindböenWindrichtungSolarstrahlungUV-IndexSonne?Uhrzeit
Diagramm IconDiagramm IconDiagramm IconDiagramm IconDiagramm IconDiagramm IconDiagramm IconDiagramm IconDiagramm IconDiagramm IconDiagramm IconDiagramm IconDiagramm Icon
00:005,4 °C 4,4 °C 4,4 °C 82 % 1027,5 hPa 0,0 mm - 6,5 km/h 16,2 km/h SSO 0,0 W/qm 0,0 nein 00:00
00:055,3 °C 4,4 °C 4,4 °C 82 % 1027,5 hPa 0,0 mm 0,0 mm 6,5 km/h 20,9 km/h NW 0,0 W/qm 0,0 nein 00:05
00:105,3 °C 4,4 °C 4,4 °C 82 % 1027,5 hPa 0,0 mm 0,0 mm 4,7 km/h 20,9 km/h S 0,0 W/qm 0,0 nein 00:10
00:155,3 °C 4,4 °C 4,4 °C 82 % 1027,5 hPa 0,0 mm - 4,7 km/h 20,9 km/h O 0,0 W/qm 0,0 nein 00:15
00:205,3 °C 4,4 °C 4,4 °C 83 % 1027,2 hPa 0,0 mm - 4,7 km/h 19,4 km/h WSW 0,0 W/qm 0,0 nein 00:20
00:255,2 °C 4,4 °C 4,4 °C 83 % 1027,3 hPa 0,0 mm - 4,7 km/h 16,2 km/h SW 0,0 W/qm 0,0 nein 00:25
00:305,2 °C 4,4 °C 4,4 °C 83 % 1027,2 hPa 0,0 mm - 4,7 km/h 16,2 km/h S 0,0 W/qm 0,0 nein 00:30
00:355,1 °C 4,4 °C 4,4 °C 84 % 1027,5 hPa 0,0 mm - 4,7 km/h 16,2 km/h NO 0,0 W/qm 0,0 nein 00:35
00:405,1 °C 4,4 °C 4,4 °C 84 % 1027,5 hPa 0,0 mm - 3,2 km/h 13,0 km/h NW 0,0 W/qm 0,0 nein 00:40
00:455,0 °C 4,4 °C 4,4 °C 84 % 1027,7 hPa 0,0 mm - 4,7 km/h 13,0 km/h W 0,0 W/qm 0,0 nein 00:45
00:504,9 °C 4,4 °C 4,4 °C 84 % 1027,7 hPa 0,0 mm - 4,7 km/h 19,4 km/h W 0,0 W/qm 0,0 nein 00:50
00:554,9 °C 4,4 °C 4,4 °C 84 % 1027,9 hPa 0,0 mm - 3,2 km/h 19,4 km/h SW 0,0 W/qm 0,0 nein 00:55
01:004,8 °C 4,4 °C 4,4 °C 84 % 1028,0 hPa 0,0 mm - 4,7 km/h 16,2 km/h WSW 0,0 W/qm 0,0 nein 01:00
01:054,8 °C 4,4 °C 4,4 °C 84 % 1027,9 hPa 0,0 mm 0,0 mm 4,7 km/h 13,0 km/h WNW 0,0 W/qm 0,0 nein 01:05
01:104,7 °C 4,4 °C 4,4 °C 84 % 1027,9 hPa 0,0 mm 0,0 mm 4,7 km/h 16,2 km/h WSW 0,0 W/qm 0,0 nein 01:10
01:154,7 °C 4,4 °C 4,4 °C 85 % 1028,0 hPa 0,0 mm - 1,4 km/h 16,2 km/h SSW 0,0 W/qm 0,0 nein 01:15
01:204,6 °C 4,4 °C 4,4 °C 85 % 1028,0 hPa 0,0 mm - 1,4 km/h 11,2 km/h S 0,0 W/qm 0,0 nein 01:20
01:254,6 °C 4,4 °C 4,4 °C 85 % 1028,1 hPa 0,0 mm - 3,2 km/h 9,7 km/h SSW 0,0 W/qm 0,0 nein 01:25
01:304,5 °C 4,4 °C 4,4 °C 85 % 1028,1 hPa 0,0 mm - 3,2 km/h 9,7 km/h WSW 0,0 W/qm 0,0 nein 01:30
01:354,4 °C 4,4 °C 4,4 °C 85 % 1028,3 hPa 0,0 mm - 3,2 km/h 9,7 km/h NW 0,0 W/qm 0,0 nein 01:35
01:404,4 °C 4,4 °C 4,4 °C 85 % 1028,2 hPa 0,0 mm - 3,2 km/h 9,7 km/h O 0,0 W/qm 0,0 nein 01:40
01:454,4 °C 4,4 °C 4,4 °C 85 % 1028,3 hPa 0,0 mm - 4,7 km/h 9,7 km/h WNW 0,0 W/qm 0,0 nein 01:45
01:504,3 °C 4,4 °C 4,4 °C 85 % 1028,4 hPa 0,0 mm - 3,2 km/h 22,7 km/h W 0,0 W/qm 0,0 nein 01:50
01:554,3 °C 4,4 °C 4,4 °C 85 % 1028,6 hPa 0,0 mm - 1,4 km/h 22,7 km/h OSO 0,0 W/qm 0,0 nein 01:55
UhrzeitTemperaturBoden 10cmBoden 20cmFeuchteLuftdruckNiederschlagEvapotranspirationWindWindböenWindrichtungSolarstrahlungUV-IndexSonne?Uhrzeit
02:004,2 °C 4,4 °C 4,4 °C 85 % 1028,6 hPa 0,0 mm - 3,2 km/h 22,7 km/h OSO 0,0 W/qm 0,0 nein 02:00
02:054,2 °C 4,4 °C 4,4 °C 85 % 1028,6 hPa 0,0 mm 0,0 mm 1,4 km/h 16,2 km/h WNW 0,0 W/qm 0,0 nein 02:05
02:104,2 °C 4,4 °C 4,4 °C 85 % 1028,7 hPa 0,0 mm 0,0 mm 1,4 km/h 16,2 km/h S 0,0 W/qm 0,0 nein 02:10
02:154,2 °C 4,4 °C 4,4 °C 85 % 1028,7 hPa 0,0 mm - 3,2 km/h 16,2 km/h WSW 0,0 W/qm 0,0 nein 02:15
02:204,2 °C 4,4 °C 4,4 °C 84 % 1028,8 hPa 0,0 mm - 3,2 km/h 11,2 km/h S 0,0 W/qm 0,0 nein 02:20
02:254,2 °C 4,4 °C 4,4 °C 84 % 1028,8 hPa 0,0 mm - 4,7 km/h 11,2 km/h OSO 0,0 W/qm 0,0 nein 02:25
02:304,2 °C 4,4 °C 4,4 °C 84 % 1028,8 hPa 0,0 mm - 3,2 km/h 13,0 km/h SW 0,0 W/qm 0,0 nein 02:30
02:354,3 °C 4,4 °C 4,4 °C 84 % 1028,8 hPa 0,0 mm - 3,2 km/h 13,0 km/h N 0,0 W/qm 0,0 nein 02:35
02:404,3 °C 4,4 °C 4,4 °C 83 % 1028,9 hPa 0,0 mm - 3,2 km/h 16,2 km/h O 0,0 W/qm 0,0 nein 02:40
02:454,3 °C 4,4 °C 4,4 °C 84 % 1029,1 hPa 0,0 mm - 1,4 km/h 16,2 km/h SW 0,0 W/qm 0,0 nein 02:45
02:504,3 °C 4,4 °C 4,4 °C 84 % 1029,1 hPa 0,0 mm - 3,2 km/h 16,2 km/h SSW 0,0 W/qm 0,0 nein 02:50
02:554,3 °C 4,4 °C 4,4 °C 83 % 1029,2 hPa 0,0 mm - 3,2 km/h 7,9 km/h ONO 0,0 W/qm 0,0 nein 02:55
03:004,3 °C 4,4 °C 4,4 °C 83 % 1029,2 hPa 0,0 mm - 3,2 km/h 13,0 km/h WSW 0,0 W/qm 0,0 nein 03:00
03:054,4 °C 4,4 °C 4,4 °C 83 % 1029,2 hPa 0,0 mm 0,0 mm 3,2 km/h 14,4 km/h NO 0,0 W/qm 0,0 nein 03:05
03:104,4 °C 4,4 °C 4,4 °C 83 % 1029,3 hPa 0,0 mm 0,0 mm 3,2 km/h 14,4 km/h O 0,0 W/qm 0,0 nein 03:10
03:154,4 °C 4,4 °C 4,4 °C 82 % 1029,4 hPa 0,0 mm - 3,2 km/h 14,4 km/h S 0,0 W/qm 0,0 nein 03:15
03:204,4 °C 4,4 °C 4,4 °C 82 % 1029,4 hPa 0,0 mm - 3,2 km/h 11,2 km/h SSW 0,0 W/qm 0,0 nein 03:20
03:254,4 °C 4,4 °C 4,4 °C 81 % 1029,4 hPa 0,0 mm - 3,2 km/h 9,7 km/h SSO 0,0 W/qm 0,0 nein 03:25
03:304,4 °C 4,4 °C 4,4 °C 80 % 1029,4 hPa 0,0 mm - 6,5 km/h 24,1 km/h OSO 0,0 W/qm 0,0 nein 03:30
03:354,5 °C 4,4 °C 4,4 °C 79 % 1029,4 hPa 0,0 mm - 6,5 km/h 24,1 km/h NO 0,0 W/qm 0,0 nein 03:35
03:404,5 °C 4,4 °C 4,4 °C 79 % 1029,5 hPa 0,0 mm - 4,7 km/h 24,1 km/h O 0,0 W/qm 0,0 nein 03:40
03:454,5 °C 4,4 °C 4,4 °C 78 % 1029,3 hPa 0,0 mm - 4,7 km/h 19,4 km/h NNW 0,0 W/qm 0,0 nein 03:45
03:504,5 °C 4,4 °C 4,4 °C 77 % 1029,5 hPa 0,0 mm - 4,7 km/h 19,4 km/h OSO 0,0 W/qm 0,0 nein 03:50
03:554,5 °C 4,4 °C 4,4 °C 77 % 1029,6 hPa 0,0 mm - 3,2 km/h 19,4 km/h SSO 0,0 W/qm 0,0 nein 03:55
UhrzeitTemperaturBoden 10cmBoden 20cmFeuchteLuftdruckNiederschlagEvapotranspirationWindWindböenWindrichtungSolarstrahlungUV-IndexSonne?Uhrzeit
04:004,5 °C 4,4 °C 4,4 °C 78 % 1029,6 hPa 0,0 mm - 3,2 km/h 19,4 km/h ONO 0,0 W/qm 0,0 nein 04:00
04:054,5 °C 4,4 °C 4,4 °C 78 % 1029,6 hPa 0,0 mm 0,0 mm 3,2 km/h 17,6 km/h S 0,0 W/qm 0,0 nein 04:05
04:104,4 °C 4,4 °C 4,4 °C 79 % 1029,9 hPa 0,0 mm 0,0 mm 3,2 km/h 17,6 km/h SSW 0,0 W/qm 0,0 nein 04:10
04:154,3 °C 3,9 °C 4,4 °C 79 % 1030,0 hPa 0,0 mm - 1,4 km/h 17,6 km/h SSW 0,0 W/qm 0,0 nein 04:15
04:204,2 °C 3,9 °C 4,4 °C 80 % 1030,1 hPa 0,0 mm - 1,4 km/h 9,7 km/h SO 0,0 W/qm 0,0 nein 04:20
04:254,2 °C 3,9 °C 4,4 °C 81 % 1030,3 hPa 0,0 mm - 1,4 km/h 9,7 km/h SO 0,0 W/qm 0,0 nein 04:25
04:304,2 °C 3,9 °C 4,4 °C 81 % 1030,3 hPa 0,0 mm - 1,4 km/h 9,7 km/h SW 0,0 W/qm 0,0 nein 04:30
04:354,1 °C 3,9 °C 4,4 °C 81 % 1030,3 hPa 0,0 mm - 1,4 km/h 7,9 km/h OSO 0,0 W/qm 0,0 nein 04:35
04:404,1 °C 3,9 °C 4,4 °C 82 % 1030,5 hPa 0,0 mm - 1,4 km/h 7,9 km/h NO 0,0 W/qm 0,0 nein 04:40
04:454,1 °C 3,9 °C 4,4 °C 82 % 1030,6 hPa 0,0 mm - 1,4 km/h 7,9 km/h W 0,0 W/qm 0,0 nein 04:45
04:504,0 °C 3,9 °C 4,4 °C 82 % 1030,8 hPa 0,0 mm - 1,4 km/h 7,9 km/h NO 0,0 W/qm 0,0 nein 04:50
04:554,0 °C 3,9 °C 4,4 °C 83 % 1030,6 hPa 0,0 mm - 1,4 km/h 9,7 km/h NNO 0,0 W/qm 0,0 nein 04:55
05:004,0 °C 3,9 °C 4,4 °C 83 % 1030,7 hPa 0,0 mm - 3,2 km/h 9,7 km/h NNO 0,0 W/qm 0,0 nein 05:00
05:054,1 °C 3,9 °C 4,4 °C 82 % 1030,8 hPa 0,0 mm 0,0 mm 3,2 km/h 9,7 km/h O 0,0 W/qm 0,0 nein 05:05
05:104,1 °C 3,9 °C 4,4 °C 82 % 1030,8 hPa 0,0 mm 0,0 mm 4,7 km/h 11,2 km/h SW 0,0 W/qm 0,0 nein 05:10
05:154,0 °C 3,9 °C 4,4 °C 82 % 1030,9 hPa 0,0 mm - 4,7 km/h 14,4 km/h ONO 0,0 W/qm 0,0 nein 05:15
05:204,0 °C 3,9 °C 4,4 °C 82 % 1030,9 hPa 0,0 mm - 4,7 km/h 17,6 km/h WNW 0,0 W/qm 0,0 nein 05:20
05:253,9 °C 3,9 °C 4,4 °C 82 % 1031,0 hPa 0,0 mm - 1,4 km/h 17,6 km/h SO 0,0 W/qm 0,0 nein 05:25
05:303,8 °C 3,9 °C 4,4 °C 82 % 1031,0 hPa 0,0 mm - 3,2 km/h 17,6 km/h ONO 0,0 W/qm 0,0 nein 05:30
05:353,8 °C 3,9 °C 4,4 °C 82 % 1031,2 hPa 0,0 mm - 4,7 km/h 20,9 km/h OSO 0,0 W/qm 0,0 nein 05:35
05:403,7 °C 3,9 °C 4,4 °C 83 % 1031,2 hPa 0,0 mm - 4,7 km/h 20,9 km/h S 0,0 W/qm 0,0 nein 05:40
05:453,6 °C 3,9 °C 4,4 °C 83 % 1031,4 hPa 0,0 mm - 3,2 km/h 20,9 km/h N 0,0 W/qm 0,0 nein 05:45
05:503,5 °C 3,9 °C 4,4 °C 83 % 1031,6 hPa 0,0 mm - 3,2 km/h 11,2 km/h NO 0,0 W/qm 0,0 nein 05:50
05:553,4 °C 3,9 °C 4,4 °C 83 % 1031,8 hPa 0,0 mm - 1,4 km/h 7,9 km/h NO 0,0 W/qm 0,0 nein 05:55
UhrzeitTemperaturBoden 10cmBoden 20cmFeuchteLuftdruckNiederschlagEvapotranspirationWindWindböenWindrichtungSolarstrahlungUV-IndexSonne?Uhrzeit
06:003,3 °C 3,9 °C 4,4 °C 83 % 1031,8 hPa 0,0 mm - 1,4 km/h 7,9 km/h NW 0,0 W/qm 0,0 nein 06:00
06:053,3 °C 3,9 °C 4,4 °C 83 % 1032,0 hPa 0,0 mm 0,0 mm 1,4 km/h 11,2 km/h ONO 0,0 W/qm 0,0 nein 06:05
06:103,4 °C 3,9 °C 4,4 °C 83 % 1032,2 hPa 0,0 mm 0,0 mm 1,4 km/h 11,2 km/h N 0,0 W/qm 0,0 nein 06:10
06:153,4 °C 3,9 °C 4,4 °C 84 % 1032,3 hPa 0,0 mm - 1,4 km/h 11,2 km/h WSW 0,0 W/qm 0,0 nein 06:15
06:203,4 °C 3,9 °C 4,4 °C 84 % 1032,4 hPa 0,0 mm - 1,4 km/h 9,7 km/h SW 0,0 W/qm 0,0 nein 06:20
06:253,4 °C 3,9 °C 4,4 °C 84 % 1032,4 hPa 0,0 mm - 1,4 km/h 7,9 km/h SW 0,0 W/qm 0,0 nein 06:25
06:303,4 °C 3,9 °C 4,4 °C 84 % 1032,4 hPa 0,0 mm - 0,0 km/h 7,9 km/h WSW 0,0 W/qm 0,0 nein 06:30
06:353,4 °C 3,9 °C 4,4 °C 84 % 1032,4 hPa 0,0 mm - 1,4 km/h 6,5 km/h WNW 0,0 W/qm 0,0 nein 06:35
06:403,4 °C 3,9 °C 4,4 °C 84 % 1032,3 hPa 0,0 mm - 1,4 km/h 6,5 km/h WSW 0,0 W/qm 0,0 nein 06:40
06:453,4 °C 3,9 °C 4,4 °C 84 % 1032,5 hPa 0,0 mm - 1,4 km/h 6,5 km/h ONO 0,0 W/qm 0,0 nein 06:45
06:503,4 °C 3,9 °C 4,4 °C 84 % 1032,6 hPa 0,0 mm - 1,4 km/h 9,7 km/h OSO 0,0 W/qm 0,0 nein 06:50
06:553,4 °C 3,9 °C 4,4 °C 85 % 1032,7 hPa 0,0 mm - 1,4 km/h 9,7 km/h NO 0,0 W/qm 0,0 nein 06:55
07:003,4 °C 3,9 °C 4,4 °C 85 % 1032,8 hPa 0,0 mm - 1,4 km/h 4,7 km/h NNO 0,0 W/qm 0,0 nein 07:00
07:053,4 °C 3,9 °C 4,4 °C 85 % 1032,9 hPa 0,0 mm 0,0 mm 1,4 km/h 7,9 km/h O 0,0 W/qm 0,0 nein 07:05
07:103,4 °C 3,9 °C 4,4 °C 85 % 1033,1 hPa 0,0 mm 0,0 mm 1,4 km/h 11,2 km/h NNW 0,0 W/qm 0,0 nein 07:10
07:153,4 °C 3,9 °C 4,4 °C 85 % 1033,3 hPa 0,0 mm - 1,4 km/h 11,2 km/h NO 0,0 W/qm 0,0 nein 07:15
07:203,2 °C 3,9 °C 4,4 °C 85 % 1033,6 hPa 0,0 mm - 4,7 km/h 11,2 km/h ONO 0,0 W/qm 0,0 nein 07:20
07:252,9 °C 3,9 °C 4,4 °C 86 % 1033,6 hPa 0,4 mm - 6,5 km/h 16,2 km/h ONO 0,0 W/qm 0,0 nein 07:25
07:302,6 °C 3,9 °C 4,4 °C 86 % 1033,8 hPa 0,4 mm - 4,7 km/h 16,2 km/h ONO 0,0 W/qm 0,0 nein 07:30
07:352,5 °C 3,9 °C 4,4 °C 87 % 1033,7 hPa 0,0 mm - 3,2 km/h 16,2 km/h ONO 0,0 W/qm 0,0 nein 07:35
07:402,4 °C 3,9 °C 4,4 °C 88 % 1033,8 hPa 0,0 mm - 1,4 km/h 11,2 km/h NW 5,0 W/qm 0,0 nein 07:40
07:452,4 °C 3,9 °C 4,4 °C 88 % 1033,9 hPa 0,0 mm - 0,0 km/h 11,2 km/h NW 5,0 W/qm 0,0 nein 07:45
07:502,3 °C 3,9 °C 4,4 °C 89 % 1034,0 hPa 0,0 mm - 0,0 km/h 6,5 km/h ONO 5,0 W/qm 0,0 nein 07:50
07:552,3 °C 3,9 °C 4,4 °C 89 % 1034,1 hPa 0,0 mm - 0,0 km/h 4,7 km/h ONO 9,0 W/qm 0,0 nein 07:55
UhrzeitTemperaturBoden 10cmBoden 20cmFeuchteLuftdruckNiederschlagEvapotranspirationWindWindböenWindrichtungSolarstrahlungUV-IndexSonne?Uhrzeit
08:002,3 °C 3,9 °C 4,4 °C 89 % 1034,1 hPa 0,0 mm - 0,0 km/h 3,2 km/h ONO 11,0 W/qm 0,0 nein 08:00
08:052,3 °C 3,9 °C 4,4 °C 90 % 1034,2 hPa 0,0 mm 0,0 mm 1,4 km/h 3,2 km/h ONO 7,0 W/qm 0,0 nein 08:05
08:102,2 °C 3,9 °C 4,4 °C 90 % 1034,5 hPa 0,0 mm 0,0 mm 4,7 km/h 4,7 km/h NO 7,0 W/qm 0,0 nein 08:10
08:151,7 °C 3,9 °C 4,4 °C 89 % 1034,8 hPa 0,2 mm - 7,9 km/h 16,2 km/h NO 11,0 W/qm 0,0 nein 08:15
08:201,3 °C 3,9 °C 4,4 °C 90 % 1034,9 hPa 0,2 mm - 6,5 km/h 22,7 km/h NO 16,0 W/qm 0,0 nein 08:20
08:251,1 °C 3,9 °C 4,4 °C 90 % 1035,1 hPa 0,0 mm - 4,7 km/h 22,7 km/h NO 19,0 W/qm 0,0 nein 08:25
08:301,0 °C 3,9 °C 4,4 °C 90 % 1035,1 hPa 0,0 mm - 3,2 km/h 19,4 km/h NO 46,0 W/qm 0,0 nein 08:30
08:351,0 °C 3,9 °C 4,4 °C 91 % 1035,2 hPa 0,0 mm - 3,2 km/h 13,0 km/h NNO 40,0 W/qm 0,0 nein 08:35
08:401,0 °C 3,9 °C 4,4 °C 91 % 1035,4 hPa 0,0 mm - 3,2 km/h 7,9 km/h NO 40,0 W/qm 0,0 nein 08:40
08:451,0 °C 3,9 °C 4,4 °C 91 % 1035,6 hPa 0,0 mm - 1,4 km/h 6,5 km/h NO 53,0 W/qm 0,0 nein 08:45
08:501,0 °C 3,9 °C 4,4 °C 91 % 1035,6 hPa 0,0 mm - 0,0 km/h 6,5 km/h NO 49,0 W/qm 0,0 nein 08:50
08:551,1 °C 3,9 °C 4,4 °C 91 % 1035,7 hPa 0,0 mm - 0,0 km/h 6,5 km/h NO 51,0 W/qm 0,0 nein 08:55
09:001,1 °C 3,9 °C 4,4 °C 92 % 1035,8 hPa 0,0 mm - 0,0 km/h 3,2 km/h NO 58,0 W/qm 0,0 nein 09:00
09:051,2 °C 3,9 °C 4,4 °C 92 % 1035,8 hPa 0,0 mm 0,0 mm 0,0 km/h 0,0 km/h NO 76,0 W/qm 0,0 nein 09:05
09:101,4 °C 3,9 °C 4,4 °C 92 % 1035,8 hPa 0,0 mm 0,0 mm 0,0 km/h 3,2 km/h NO 120,0 W/qm 0,0 nein 09:10
09:151,6 °C 3,9 °C 4,4 °C 92 % 1036,0 hPa 0,0 mm - 1,4 km/h 3,2 km/h ONO 139,0 W/qm 0,0 ja 09:15
09:201,7 °C 3,9 °C 4,4 °C 92 % 1036,0 hPa 0,0 mm - 1,4 km/h 6,5 km/h ONO 153,0 W/qm 0,0 ja 09:20
09:251,8 °C 3,9 °C 4,4 °C 92 % 1036,0 hPa 0,0 mm - 1,4 km/h 6,5 km/h NO 156,0 W/qm 0,0 ja 09:25
09:301,9 °C 3,9 °C 4,4 °C 91 % 1036,1 hPa 0,0 mm - 3,2 km/h 6,5 km/h ONO 109,0 W/qm 0,0 nein 09:30
09:351,9 °C 3,9 °C 4,4 °C 91 % 1036,2 hPa 0,0 mm - 4,7 km/h 7,9 km/h NO 104,0 W/qm 0,0 nein 09:35
09:401,9 °C 3,9 °C 4,4 °C 90 % 1036,3 hPa 0,0 mm - 4,7 km/h 7,9 km/h NO 98,0 W/qm 0,0 nein 09:40
09:452,0 °C 3,9 °C 4,4 °C 90 % 1036,1 hPa 0,0 mm - 3,2 km/h 7,9 km/h ONO 102,0 W/qm 0,0 nein 09:45
09:502,0 °C 3,9 °C 4,4 °C 90 % 1036,3 hPa 0,0 mm - 3,2 km/h 6,5 km/h NO 113,0 W/qm 0,0 nein 09:50
09:552,0 °C 3,9 °C 4,4 °C 90 % 1036,5 hPa 0,0 mm - 3,2 km/h 6,5 km/h NO 135,0 W/qm 0,0 ja 09:55
UhrzeitTemperaturBoden 10cmBoden 20cmFeuchteLuftdruckNiederschlagEvapotranspirationWindWindböenWindrichtungSolarstrahlungUV-IndexSonne?Uhrzeit
10:002,1 °C 3,9 °C 4,4 °C 89 % 1036,6 hPa 0,0 mm - 4,7 km/h 6,5 km/h ONO 146,0 W/qm 0,0 ja 10:00
10:052,1 °C 3,9 °C 4,4 °C 89 % 1036,7 hPa 0,0 mm 0,1 mm 4,7 km/h 13,0 km/h NO 132,0 W/qm 0,0 nein 10:05
10:102,2 °C 3,9 °C 4,4 °C 88 % 1036,6 hPa 0,0 mm 0,1 mm 3,2 km/h 13,0 km/h ONO 128,0 W/qm 0,0 nein 10:10
10:152,2 °C 3,9 °C 4,4 °C 88 % 1036,8 hPa 0,0 mm - 3,2 km/h 11,2 km/h NO 128,0 W/qm 0,0 nein 10:15
10:202,3 °C 3,9 °C 4,4 °C 88 % 1036,9 hPa 0,0 mm - 4,7 km/h 11,2 km/h ONO 162,0 W/qm 0,0 ja 10:20
10:252,3 °C 3,9 °C 4,4 °C 88 % 1036,9 hPa 0,0 mm - 4,7 km/h 11,2 km/h ONO 176,0 W/qm 0,0 ja 10:25
10:302,4 °C 3,9 °C 4,4 °C 87 % 1037,0 hPa 0,0 mm - 4,7 km/h 11,2 km/h NO 146,0 W/qm 0,0 ja 10:30
10:352,4 °C 3,9 °C 4,4 °C 87 % 1036,9 hPa 0,0 mm - 4,7 km/h 7,9 km/h ONO 146,0 W/qm 0,0 ja 10:35
10:402,3 °C 3,9 °C 4,4 °C 86 % 1037,0 hPa 0,0 mm - 6,5 km/h 7,9 km/h ONO 160,0 W/qm 0,5 ja 10:40
10:452,3 °C 3,9 °C 4,4 °C 86 % 1037,3 hPa 0,0 mm - 6,5 km/h 16,2 km/h NO 151,0 W/qm 0,5 ja 10:45
10:502,4 °C 3,9 °C 4,4 °C 86 % 1037,3 hPa 0,0 mm - 4,7 km/h 16,2 km/h ONO 185,0 W/qm 0,5 ja 10:50
10:552,4 °C 3,9 °C 4,4 °C 85 % 1037,4 hPa 0,0 mm - 4,7 km/h 16,2 km/h ONO 113,0 W/qm 0,5 nein 10:55
11:002,4 °C 3,9 °C 4,4 °C 85 % 1037,5 hPa 0,0 mm - 3,2 km/h 11,2 km/h NO 149,0 W/qm 0,5 ja 11:00
11:052,4 °C 3,9 °C 4,4 °C 85 % 1037,7 hPa 0,0 mm 0,1 mm 3,2 km/h 7,9 km/h ONO 160,0 W/qm 0,5 ja 11:05
11:102,4 °C 3,9 °C 4,4 °C 85 % 1037,7 hPa 0,0 mm 0,1 mm 3,2 km/h 7,9 km/h O 128,0 W/qm 0,6 nein 11:10
11:152,5 °C 3,9 °C 4,4 °C 84 % 1037,7 hPa 0,0 mm - 4,7 km/h 6,5 km/h NO 218,0 W/qm 0,6 ja 11:15
11:202,8 °C 3,9 °C 4,4 °C 84 % 1037,7 hPa 0,0 mm - 4,7 km/h 7,9 km/h NO 237,0 W/qm 0,7 ja 11:20
11:252,8 °C 3,9 °C 4,4 °C 82 % 1037,7 hPa 0,0 mm - 4,7 km/h 7,9 km/h ONO 206,0 W/qm 0,6 ja 11:25
11:302,8 °C 3,9 °C 4,4 °C 81 % 1037,6 hPa 0,0 mm - 4,7 km/h 7,9 km/h ONO 294,0 W/qm 0,7 ja 11:30
11:353,1 °C 3,9 °C 4,4 °C 81 % 1037,5 hPa 0,0 mm - 6,5 km/h 14,4 km/h NO 237,0 W/qm 0,8 ja 11:35
11:402,9 °C 3,9 °C 4,4 °C 79 % 1037,6 hPa 0,0 mm - 6,5 km/h 14,4 km/h NO 267,0 W/qm 0,7 ja 11:40
11:452,9 °C 3,9 °C 4,4 °C 79 % 1037,7 hPa 0,0 mm - 6,5 km/h 14,4 km/h NO 229,0 W/qm 0,6 ja 11:45
11:502,9 °C 3,9 °C 4,4 °C 78 % 1037,6 hPa 0,0 mm - 4,7 km/h 14,4 km/h ONO 144,0 W/qm 0,5 ja 11:50
11:552,9 °C 3,9 °C 4,4 °C 78 % 1037,6 hPa 0,0 mm - 3,2 km/h 11,2 km/h NO 162,0 W/qm 0,5 ja 11:55
UhrzeitTemperaturBoden 10cmBoden 20cmFeuchteLuftdruckNiederschlagEvapotranspirationWindWindböenWindrichtungSolarstrahlungUV-IndexSonne?Uhrzeit
12:002,9 °C 3,9 °C 4,4 °C 78 % 1037,6 hPa 0,0 mm - 3,2 km/h 11,2 km/h NO 227,0 W/qm 0,7 ja 12:00
12:053,0 °C 3,9 °C 4,4 °C 77 % 1037,7 hPa 0,0 mm 0,2 mm 4,7 km/h 7,9 km/h NNO 248,0 W/qm 0,8 ja 12:05
12:103,2 °C 3,9 °C 4,4 °C 74 % 1037,5 hPa 0,0 mm 0,2 mm 4,7 km/h 11,2 km/h ONO 290,0 W/qm 0,8 ja 12:10
12:153,4 °C 3,9 °C 4,4 °C 75 % 1037,6 hPa 0,0 mm - 4,7 km/h 11,2 km/h ONO 246,0 W/qm 0,7 ja 12:15
12:203,3 °C 3,9 °C 4,4 °C 75 % 1037,6 hPa 0,0 mm - 4,7 km/h 14,4 km/h ONO 188,0 W/qm 0,5 ja 12:20
12:253,2 °C 3,9 °C 4,4 °C 74 % 1037,6 hPa 0,0 mm - 4,7 km/h 14,4 km/h ONO 183,0 W/qm 0,6 ja 12:25
12:303,1 °C 3,9 °C 4,4 °C 74 % 1037,7 hPa 0,0 mm - 4,7 km/h 11,2 km/h NO 186,0 W/qm 0,6 ja 12:30
12:353,1 °C 3,9 °C 4,4 °C 74 % 1037,7 hPa 0,0 mm - 3,2 km/h 11,2 km/h O 192,0 W/qm 0,7 ja 12:35
12:403,1 °C 3,9 °C 4,4 °C 74 % 1037,7 hPa 0,0 mm - 3,2 km/h 11,2 km/h ONO 185,0 W/qm 0,7 ja 12:40
12:453,1 °C 3,9 °C 4,4 °C 72 % 1037,7 hPa 0,0 mm - 1,4 km/h 7,9 km/h ONO 190,0 W/qm 0,7 ja 12:45
12:503,2 °C 3,9 °C 4,4 °C 73 % 1037,5 hPa 0,0 mm - 3,2 km/h 7,9 km/h ONO 183,0 W/qm 0,6 ja 12:50
12:553,2 °C 3,9 °C 4,4 °C 71 % 1037,7 hPa 0,0 mm - 4,7 km/h 9,7 km/h NO 188,0 W/qm 0,7 ja 12:55
13:003,2 °C 4,4 °C 4,4 °C 73 % 1037,6 hPa 0,0 mm - 4,7 km/h 9,7 km/h ONO 181,0 W/qm 0,7 ja 13:00
13:053,1 °C 4,4 °C 4,4 °C 71 % 1037,8 hPa 0,0 mm 0,3 mm 4,7 km/h 9,7 km/h ONO 171,0 W/qm 0,6 ja 13:05
13:103,2 °C 4,4 °C 4,4 °C 71 % 1037,8 hPa 0,0 mm 0,3 mm 4,7 km/h 9,7 km/h NO 165,0 W/qm 0,6 ja 13:10
13:153,3 °C 4,4 °C 4,4 °C 72 % 1037,8 hPa 0,0 mm - 3,2 km/h 7,9 km/h NNO 148,0 W/qm 0,5 ja 13:15
13:203,2 °C 4,4 °C 4,4 °C 70 % 1038,0 hPa 0,0 mm - 3,2 km/h 7,9 km/h N 146,0 W/qm 0,5 ja 13:20
13:253,2 °C 4,4 °C 4,4 °C 69 % 1038,0 hPa 0,0 mm - 1,4 km/h 7,9 km/h NNO 148,0 W/qm 0,5 ja 13:25
13:303,2 °C 4,4 °C 4,4 °C 70 % 1038,0 hPa 0,0 mm - 1,4 km/h 7,9 km/h NO 135,0 W/qm 0,5 ja 13:30
13:353,2 °C 4,4 °C 4,4 °C 71 % 1038,0 hPa 0,0 mm - 3,2 km/h 7,9 km/h ONO 135,0 W/qm 0,5 ja 13:35
13:403,2 °C 4,4 °C 4,4 °C 72 % 1038,1 hPa 0,0 mm - 3,2 km/h 7,9 km/h NW 121,0 W/qm 0,5 nein 13:40
13:453,2 °C 4,4 °C 4,4 °C 71 % 1038,0 hPa 0,0 mm - 3,2 km/h 7,9 km/h WNW 137,0 W/qm 0,5 ja 13:45
13:503,2 °C 4,4 °C 4,4 °C 71 % 1038,1 hPa 0,0 mm - 1,4 km/h 7,9 km/h ONO 169,0 W/qm 0,5 ja 13:50
13:553,2 °C 4,4 °C 4,4 °C 72 % 1038,1 hPa 0,0 mm - 1,4 km/h 7,9 km/h NO 171,0 W/qm 0,6 ja 13:55
UhrzeitTemperaturBoden 10cmBoden 20cmFeuchteLuftdruckNiederschlagEvapotranspirationWindWindböenWindrichtungSolarstrahlungUV-IndexSonne?Uhrzeit
14:003,2 °C 4,4 °C 4,4 °C 71 % 1038,2 hPa 0,0 mm - 4,7 km/h 6,5 km/h NO 155,0 W/qm 0,5 ja 14:00
14:053,2 °C 4,4 °C 4,4 °C 71 % 1038,1 hPa 0,0 mm 0,4 mm 4,7 km/h 7,9 km/h S 144,0 W/qm 0,5 ja 14:05
14:103,3 °C 4,4 °C 4,4 °C 71 % 1038,1 hPa 0,0 mm 0,4 mm 3,2 km/h 7,9 km/h NO 142,0 W/qm 0,5 ja 14:10
14:153,2 °C 4,4 °C 4,4 °C 71 % 1038,1 hPa 0,0 mm - 3,2 km/h 7,9 km/h NW 149,0 W/qm 0,5 ja 14:15
14:203,3 °C 4,4 °C 4,4 °C 70 % 1038,2 hPa 0,0 mm - 1,4 km/h 6,5 km/h ONO 156,0 W/qm 0,5 ja 14:20
14:253,3 °C 4,4 °C 4,4 °C 71 % 1038,2 hPa 0,0 mm - 1,4 km/h 6,5 km/h ONO 163,0 W/qm 0,0 ja 14:25
14:303,3 °C 4,4 °C 4,4 °C 72 % 1038,1 hPa 0,0 mm - 3,2 km/h 7,9 km/h NNW 148,0 W/qm 0,0 ja 14:30
14:353,3 °C 4,4 °C 4,4 °C 72 % 1038,2 hPa 0,0 mm - 3,2 km/h 7,9 km/h NO 130,0 W/qm 0,0 nein 14:35
14:403,2 °C 4,4 °C 4,4 °C 70 % 1038,2 hPa 0,0 mm - 1,4 km/h 7,9 km/h N 130,0 W/qm 0,0 nein 14:40
14:453,2 °C 4,4 °C 4,4 °C 71 % 1038,2 hPa 0,0 mm - 1,4 km/h 6,5 km/h NO 155,0 W/qm 0,0 ja 14:45
14:503,3 °C 4,4 °C 4,4 °C 71 % 1038,3 hPa 0,0 mm - 1,4 km/h 6,5 km/h ONO 142,0 W/qm 0,0 ja 14:50
14:553,3 °C 4,4 °C 4,4 °C 72 % 1038,3 hPa 0,0 mm - 1,4 km/h 6,5 km/h ONO 130,0 W/qm 0,0 nein 14:55
15:003,3 °C 4,4 °C 4,4 °C 72 % 1038,4 hPa 0,0 mm - 3,2 km/h 4,7 km/h NO 132,0 W/qm 0,0 nein 15:00
15:053,2 °C 4,4 °C 4,4 °C 72 % 1038,3 hPa 0,0 mm 0,4 mm 3,2 km/h 7,9 km/h NNO 132,0 W/qm 0,0 nein 15:05
15:103,2 °C 4,4 °C 4,4 °C 70 % 1038,3 hPa 0,0 mm 0,4 mm 3,2 km/h 7,9 km/h ONO 135,0 W/qm 0,0 ja 15:10
15:153,2 °C 4,4 °C 4,4 °C 72 % 1038,4 hPa 0,0 mm - 4,7 km/h 7,9 km/h NO 123,0 W/qm 0,0 nein 15:15
15:203,1 °C 4,4 °C 4,4 °C 72 % 1038,4 hPa 0,0 mm - 4,7 km/h 7,9 km/h NO 113,0 W/qm 0,0 nein 15:20
15:253,1 °C 4,4 °C 4,4 °C 71 % 1038,5 hPa 0,0 mm - 3,2 km/h 7,9 km/h SW 113,0 W/qm 0,0 nein 15:25
15:303,1 °C 4,4 °C 4,4 °C 71 % 1038,5 hPa 0,0 mm - 1,4 km/h 7,9 km/h SW 111,0 W/qm 0,0 nein 15:30
15:353,1 °C 4,4 °C 4,4 °C 71 % 1038,4 hPa 0,0 mm - 0,0 km/h 7,9 km/h SW 111,0 W/qm 0,0 nein 15:35
15:403,0 °C 4,4 °C 4,4 °C 72 % 1038,4 hPa 0,0 mm - 1,4 km/h 4,7 km/h NO 91,0 W/qm 0,0 nein 15:40
15:452,9 °C 4,4 °C 4,4 °C 72 % 1038,5 hPa 0,0 mm - 1,4 km/h 4,7 km/h ONO 81,0 W/qm 0,0 nein 15:45
15:502,8 °C 4,4 °C 4,4 °C 73 % 1038,6 hPa 0,0 mm - 1,4 km/h 4,7 km/h ONO 60,0 W/qm 0,0 nein 15:50
15:552,7 °C 4,4 °C 4,4 °C 72 % 1038,6 hPa 0,0 mm - 0,0 km/h 4,7 km/h ONO 46,0 W/qm 0,0 nein 15:55
UhrzeitTemperaturBoden 10cmBoden 20cmFeuchteLuftdruckNiederschlagEvapotranspirationWindWindböenWindrichtungSolarstrahlungUV-IndexSonne?Uhrzeit
16:002,7 °C 4,4 °C 4,4 °C 73 % 1038,7 hPa 0,0 mm - 0,0 km/h 4,7 km/h ONO 40,0 W/qm 0,0 nein 16:00
16:052,5 °C 4,4 °C 4,4 °C 75 % 1038,7 hPa 0,0 mm 0,5 mm 0,0 km/h 3,2 km/h ONO 62,0 W/qm 0,0 nein 16:05
16:102,4 °C 4,4 °C 4,4 °C 75 % 1038,8 hPa 0,0 mm 0,5 mm 0,0 km/h 3,2 km/h ONO 109,0 W/qm 0,0 nein 16:10
16:152,4 °C 4,4 °C 4,4 °C 75 % 1038,8 hPa 0,0 mm - 0,0 km/h 3,2 km/h ONO 35,0 W/qm 0,0 nein 16:15
16:202,3 °C 4,4 °C 4,4 °C 74 % 1038,8 hPa 0,0 mm - 0,0 km/h 3,2 km/h ONO 49,0 W/qm 0,0 nein 16:20
16:252,1 °C 4,4 °C 4,4 °C 76 % 1039,0 hPa 0,0 mm - 0,0 km/h 3,2 km/h ONO 67,0 W/qm 0,0 nein 16:25
16:302,1 °C 4,4 °C 4,4 °C 77 % 1039,0 hPa 0,0 mm - 0,0 km/h 3,2 km/h ONO 49,0 W/qm 0,0 nein 16:30
16:351,9 °C 4,4 °C 4,4 °C 77 % 1039,0 hPa 0,0 mm - 0,0 km/h 1,4 km/h ONO 28,0 W/qm 0,0 nein 16:35
16:401,9 °C 4,4 °C 4,4 °C 77 % 1039,0 hPa 0,0 mm - 0,0 km/h 1,4 km/h ONO 25,0 W/qm 0,0 nein 16:40
16:451,6 °C 4,4 °C 4,4 °C 78 % 1039,0 hPa 0,0 mm - 0,0 km/h 0,0 km/h ONO 21,0 W/qm 0,0 nein 16:45
16:501,4 °C 4,4 °C 4,4 °C 79 % 1039,2 hPa 0,0 mm - 0,0 km/h 3,2 km/h ONO 18,0 W/qm 0,0 nein 16:50
16:551,2 °C 4,4 °C 4,4 °C 79 % 1039,3 hPa 0,0 mm - 0,0 km/h 3,2 km/h ONO 16,0 W/qm 0,0 nein 16:55
17:001,2 °C 4,4 °C 4,4 °C 80 % 1039,3 hPa 0,0 mm - 0,0 km/h 3,2 km/h ONO 18,0 W/qm 0,0 nein 17:00
17:051,1 °C 4,4 °C 4,4 °C 80 % 1039,3 hPa 0,0 mm 0,5 mm 0,0 km/h 0,0 km/h ONO 14,0 W/qm 0,0 nein 17:05
17:101,1 °C 4,4 °C 4,4 °C 81 % 1039,3 hPa 0,0 mm 0,5 mm 0,0 km/h 0,0 km/h ONO 11,0 W/qm 0,0 nein 17:10
17:151,1 °C 4,4 °C 4,4 °C 80 % 1039,4 hPa 0,0 mm - 0,0 km/h 0,0 km/h ONO 9,0 W/qm 0,0 nein 17:15
17:201,0 °C 4,4 °C 4,4 °C 80 % 1039,3 hPa 0,0 mm - 0,0 km/h 0,0 km/h ONO 5,0 W/qm 0,0 nein 17:20
17:251,0 °C 4,4 °C 4,4 °C 80 % 1039,4 hPa 0,0 mm - 0,0 km/h 0,0 km/h ONO 5,0 W/qm 0,0 nein 17:25
17:300,8 °C 4,4 °C 4,4 °C 80 % 1039,5 hPa 0,0 mm - 0,0 km/h 0,0 km/h ONO 0,0 W/qm 0,0 nein 17:30
17:350,7 °C 4,4 °C 4,4 °C 81 % 1039,6 hPa 0,0 mm - 0,0 km/h 0,0 km/h ONO 0,0 W/qm 0,0 nein 17:35
17:400,6 °C 4,4 °C 4,4 °C 81 % 1039,7 hPa 0,0 mm - 0,0 km/h 0,0 km/h ONO 0,0 W/qm 0,0 nein 17:40
17:450,4 °C 4,4 °C 4,4 °C 82 % 1039,7 hPa 0,0 mm - 0,0 km/h 0,0 km/h ONO 0,0 W/qm 0,0 nein 17:45
17:500,3 °C 4,4 °C 4,4 °C 81 % 1040,0 hPa 0,0 mm - 0,0 km/h 0,0 km/h ONO 0,0 W/qm 0,0 nein 17:50
17:550,2 °C 4,4 °C 4,4 °C 82 % 1040,1 hPa 0,0 mm - 0,0 km/h 0,0 km/h ONO 0,0 W/qm 0,0 nein 17:55
UhrzeitTemperaturBoden 10cmBoden 20cmFeuchteLuftdruckNiederschlagEvapotranspirationWindWindböenWindrichtungSolarstrahlungUV-IndexSonne?Uhrzeit
18:000,0 °C 4,4 °C 4,4 °C 82 % 1040,0 hPa 0,0 mm - 0,0 km/h 0,0 km/h ONO 0,0 W/qm 0,0 nein 18:00
18:05-0,1 °C 4,4 °C 4,4 °C 82 % 1040,1 hPa 0,0 mm 0,5 mm 0,0 km/h 0,0 km/h ONO 0,0 W/qm 0,0 nein 18:05
18:10-0,2 °C 4,4 °C 4,4 °C 83 % 1040,3 hPa 0,0 mm 0,5 mm 0,0 km/h 0,0 km/h ONO 0,0 W/qm 0,0 nein 18:10
18:15-0,3 °C 4,4 °C 4,4 °C 83 % 1040,3 hPa 0,0 mm - 0,0 km/h 0,0 km/h ONO 0,0 W/qm 0,0 nein 18:15
18:20-0,4 °C 4,4 °C 4,4 °C 83 % 1040,3 hPa 0,0 mm - 0,0 km/h 0,0 km/h ONO 0,0 W/qm 0,0 nein 18:20
18:25-0,6 °C 4,4 °C 4,4 °C 83 % 1040,3 hPa 0,0 mm - 0,0 km/h 0,0 km/h ONO 0,0 W/qm 0,0 nein 18:25
18:30-0,7 °C 4,4 °C 4,4 °C 83 % 1040,4 hPa 0,0 mm - 0,0 km/h 0,0 km/h ONO 0,0 W/qm 0,0 nein 18:30
18:35-0,8 °C 4,4 °C 4,4 °C 84 % 1040,3 hPa 0,0 mm - 0,0 km/h 0,0 km/h ONO 0,0 W/qm 0,0 nein 18:35
18:40-0,9 °C 4,4 °C 4,4 °C 83 % 1040,4 hPa 0,0 mm - 0,0 km/h 0,0 km/h ONO 0,0 W/qm 0,0 nein 18:40
18:45-1,0 °C 4,4 °C 4,4 °C 84 % 1040,4 hPa 0,0 mm - 0,0 km/h 0,0 km/h ONO 0,0 W/qm 0,0 nein 18:45
18:50-1,1 °C 3,9 °C 4,4 °C 84 % 1040,3 hPa 0,0 mm - 0,0 km/h 0,0 km/h ONO 0,0 W/qm 0,0 nein 18:50
18:55-1,2 °C 3,9 °C 4,4 °C 85 % 1040,3 hPa 0,0 mm - 0,0 km/h 0,0 km/h ONO 0,0 W/qm 0,0 nein 18:55
19:00-1,3 °C 3,9 °C 4,4 °C 85 % 1040,4 hPa 0,0 mm - 0,0 km/h 0,0 km/h ONO 0,0 W/qm 0,0 nein 19:00
19:05-1,4 °C 3,9 °C 4,4 °C 85 % 1040,3 hPa 0,0 mm 0,5 mm 0,0 km/h 0,0 km/h ONO 0,0 W/qm 0,0 nein 19:05
19:10-1,4 °C 3,9 °C 4,4 °C 86 % 1040,3 hPa 0,0 mm 0,5 mm 0,0 km/h 0,0 km/h O 0,0 W/qm 0,0 nein 19:10
19:15-1,5 °C 3,9 °C 4,4 °C 86 % 1040,5 hPa 0,0 mm - 0,0 km/h 1,4 km/h O 0,0 W/qm 0,0 nein 19:15
19:20-1,6 °C 3,9 °C 4,4 °C 86 % 1040,5 hPa 0,0 mm - 0,0 km/h 1,4 km/h O 0,0 W/qm 0,0 nein 19:20
19:25-1,7 °C 3,9 °C 4,4 °C 86 % 1040,4 hPa 0,0 mm - 0,0 km/h 1,4 km/h O 0,0 W/qm 0,0 nein 19:25
19:30-1,8 °C 3,9 °C 4,4 °C 86 % 1040,4 hPa 0,0 mm - 0,0 km/h 1,4 km/h O 0,0 W/qm 0,0 nein 19:30
19:35-1,8 °C 3,9 °C 4,4 °C 86 % 1040,5 hPa 0,0 mm - 0,0 km/h 0,0 km/h O 0,0 W/qm 0,0 nein 19:35
19:40-1,9 °C 3,9 °C 4,4 °C 86 % 1040,5 hPa 0,0 mm - 0,0 km/h 0,0 km/h O 0,0 W/qm 0,0 nein 19:40
19:45-2,0 °C 3,9 °C 4,4 °C 86 % 1040,6 hPa 0,0 mm - 0,0 km/h 0,0 km/h O 0,0 W/qm 0,0 nein 19:45
19:50-2,1 °C 3,9 °C 4,4 °C 86 % 1040,7 hPa 0,0 mm - 0,0 km/h 0,0 km/h O 0,0 W/qm 0,0 nein 19:50
19:55-2,2 °C 3,9 °C 4,4 °C 86 % 1040,7 hPa 0,0 mm - 0,0 km/h 0,0 km/h O 0,0 W/qm 0,0 nein 19:55
UhrzeitTemperaturBoden 10cmBoden 20cmFeuchteLuftdruckNiederschlagEvapotranspirationWindWindböenWindrichtungSolarstrahlungUV-IndexSonne?Uhrzeit
20:00-2,2 °C 3,9 °C 4,4 °C 87 % 1040,8 hPa 0,0 mm - 0,0 km/h 0,0 km/h O 0,0 W/qm 0,0 nein 20:00
20:05-2,3 °C 3,9 °C 4,4 °C 87 % 1040,8 hPa 0,0 mm 0,5 mm 0,0 km/h 0,0 km/h O 0,0 W/qm 0,0 nein 20:05
20:10-2,3 °C 3,9 °C 4,4 °C 87 % 1040,8 hPa 0,0 mm 0,5 mm 0,0 km/h 0,0 km/h O 0,0 W/qm 0,0 nein 20:10
20:15-2,4 °C 3,9 °C 4,4 °C 87 % 1040,9 hPa 0,0 mm - 0,0 km/h 0,0 km/h O 0,0 W/qm 0,0 nein 20:15
20:20-2,4 °C 3,9 °C 4,4 °C 88 % 1040,9 hPa 0,0 mm - 0,0 km/h 0,0 km/h O 0,0 W/qm 0,0 nein 20:20
20:25-2,6 °C 3,9 °C 4,4 °C 88 % 1041,0 hPa 0,0 mm - 0,0 km/h 0,0 km/h O 0,0 W/qm 0,0 nein 20:25
20:30-2,6 °C 3,9 °C 4,4 °C 88 % 1041,0 hPa 0,0 mm - 0,0 km/h 0,0 km/h O 0,0 W/qm 0,0 nein 20:30
20:35-2,7 °C 3,9 °C 4,4 °C 88 % 1041,1 hPa 0,0 mm - 0,0 km/h 0,0 km/h O 0,0 W/qm 0,0 nein 20:35
20:40-2,8 °C 3,9 °C 4,4 °C 88 % 1041,1 hPa 0,0 mm - 0,0 km/h 0,0 km/h O 0,0 W/qm 0,0 nein 20:40
20:45-2,8 °C 3,9 °C 4,4 °C 88 % 1041,1 hPa 0,0 mm - 0,0 km/h 0,0 km/h O 0,0 W/qm 0,0 nein 20:45
20:50-2,9 °C 3,9 °C 4,4 °C 88 % 1041,1 hPa 0,0 mm - 0,0 km/h 0,0 km/h O 0,0 W/qm 0,0 nein 20:50
20:55-2,9 °C 3,9 °C 4,4 °C 89 % 1041,1 hPa 0,0 mm - 0,0 km/h 0,0 km/h O 0,0 W/qm 0,0 nein 20:55
21:00-2,9 °C 3,9 °C 4,4 °C 89 % 1041,1 hPa 0,0 mm - 0,0 km/h 0,0 km/h O 0,0 W/qm 0,0 nein 21:00
21:05-3,0 °C 3,9 °C 4,4 °C 89 % 1041,1 hPa 0,0 mm 0,5 mm 0,0 km/h 0,0 km/h O 0,0 W/qm 0,0 nein 21:05
21:10-3,1 °C 3,9 °C 4,4 °C 89 % 1041,2 hPa 0,0 mm 0,5 mm 0,0 km/h 0,0 km/h O 0,0 W/qm 0,0 nein 21:10
21:15-3,2 °C 3,9 °C 4,4 °C 89 % 1041,3 hPa 0,0 mm - 0,0 km/h 0,0 km/h O 0,0 W/qm 0,0 nein 21:15
21:20-3,2 °C 3,9 °C 4,4 °C 89 % 1041,3 hPa 0,0 mm - 0,0 km/h 0,0 km/h O 0,0 W/qm 0,0 nein 21:20
21:25-3,3 °C 3,9 °C 4,4 °C 89 % 1041,5 hPa 0,0 mm - 0,0 km/h 0,0 km/h O 0,0 W/qm 0,0 nein 21:25
21:30-3,3 °C 3,9 °C 4,4 °C 89 % 1041,6 hPa 0,0 mm - 0,0 km/h 0,0 km/h O 0,0 W/qm 0,0 nein 21:30
21:35-3,4 °C 3,9 °C 4,4 °C 89 % 1041,6 hPa 0,0 mm - 0,0 km/h 0,0 km/h O 0,0 W/qm 0,0 nein 21:35
21:40-3,4 °C 3,9 °C 4,4 °C 89 % 1041,6 hPa 0,0 mm - 0,0 km/h 0,0 km/h O 0,0 W/qm 0,0 nein 21:40
21:45-3,4 °C 3,3 °C 4,4 °C 90 % 1041,7 hPa 0,0 mm - 0,0 km/h 0,0 km/h O 0,0 W/qm 0,0 nein 21:45
21:50-3,5 °C 3,3 °C 4,4 °C 90 % 1041,8 hPa 0,0 mm - 0,0 km/h 0,0 km/h O 0,0 W/qm 0,0 nein 21:50
21:55-3,5 °C 3,3 °C 4,4 °C 89 % 1041,8 hPa 0,0 mm - 0,0 km/h 0,0 km/h O 0,0 W/qm 0,0 nein 21:55
UhrzeitTemperaturBoden 10cmBoden 20cmFeuchteLuftdruckNiederschlagEvapotranspirationWindWindböenWindrichtungSolarstrahlungUV-IndexSonne?Uhrzeit
22:00-3,6 °C 3,3 °C 4,4 °C 90 % 1041,8 hPa 0,0 mm - 0,0 km/h 0,0 km/h O 0,0 W/qm 0,0 nein 22:00
22:05-3,7 °C 3,3 °C 4,4 °C 90 % 1041,8 hPa 0,0 mm 0,5 mm 0,0 km/h 0,0 km/h O 0,0 W/qm 0,0 nein 22:05
22:10-3,7 °C 3,3 °C 4,4 °C 90 % 1041,9 hPa 0,0 mm 0,5 mm 0,0 km/h 0,0 km/h O 0,0 W/qm 0,0 nein 22:10
22:15-3,8 °C 3,3 °C 4,4 °C 90 % 1041,9 hPa 0,0 mm - 0,0 km/h 0,0 km/h O 0,0 W/qm 0,0 nein 22:15
22:20-3,8 °C 3,3 °C 4,4 °C 90 % 1041,9 hPa 0,0 mm - 0,0 km/h 0,0 km/h O 0,0 W/qm 0,0 nein 22:20
22:25-3,9 °C 3,3 °C 4,4 °C 90 % 1041,9 hPa 0,0 mm - 0,0 km/h 0,0 km/h O 0,0 W/qm 0,0 nein 22:25
Gesamt: 2,1 °C 4,1 °C 4,4 °C 82 % 1035,6 hPa 1,2 mm 10,2 mm 2,2 km/h 8,2 km/h 0 51,3 W/qm 0,1 ja

Insgesamt 270 Zeilen mal 13 Spalten = 3510 Werte werden angezeigt.

www.wetter-rosstal.de   •   www.wetter-franken.de   •   www.lightningmaps.org   •   Start   •   Kontakt / Datenschutz   •   PC-Kümmerer